Volver al catálogo

STARLINK-32957

ActivoComunicacionesVLEO
NORAD 63124·PAYLOAD·🇺🇸 United States

Lanzado Feb 27, 2025 desde Cape Canaveral Space Force Station

Loading…

Próximos Pases (próximas 24 horas)

TLE

ActualizadoSource: CelesTrak SupGP

Época: Sep 15, 2026, 03:06 UTC

1 63124C 25039W   26258.12965278  .00005683  00000+0  20590-3 0  2586
2 63124  43.0018  23.0880 0001537 270.9571 221.0240 15.27566282    18

Sigue STARLINK-32957 en tiempo real con AllMySat

Download on the App Store